This demonstration page uses our WeatherBlox Daily Observations layout. Learn more.

Left ArrowRight Arrow

Hourly Observations for October 29, 2019

Temp ( °F °C ) Dew Point ( °F °C ) Humidity (%) Winds ( mph kmh ) Pressure ( in mb ) Visibility ( mi km ) Precip ( " mm )
12:53 am 00:53 Clear 53 11.7 52 11.1 96 96 Calm 30.10 1019 10 16 0.00 0.00
1:53 am 01:53 Clear 52 11.1 51 10.6 97 97 Calm 30.09 1019 10 16 0.00 0.00
2:53 am 02:53 Clear 52 11.1 51 10.6 97 97 Calm 30.09 1019 10 16 0.00 0.00
3:53 am 03:53 Clear 52 11.1 51 10.6 97 97 Calm 30.09 1019 10 16 0.00 0.00
4:53 am 04:53 Clear 52 11.1 50 10 93 93 NNE 3 6 30.09 1019 10 16 0.00 0.00
5:53 am 05:53 Mostly Cloudy 53 11.7 52 11.1 96 96 Calm 30.09 1019 10 16 0.00 0.00
6:53 am 06:53 Mostly Cloudy 55 12.8 53 11.7 93 93 Calm 30.10 1019 10 16 0.00 0.00
7:53 am 07:53 Cloudy 56 13.3 54 12.2 93 93 N 3 6 30.11 1020 10 16 0.00 0.00
8:53 am 08:53 Mostly Cloudy 58 14.4 56 13.3 93 93 Calm 30.14 1021 10 16 0.00 0.00
9:53 am 09:53 Cloudy 61 16.1 58 14.4 90 90 Calm 30.16 1021 10 16 0.00 0.00
10:53 am 10:53 Cloudy 65 18.3 59 15 81 81 N 3 6 30.17 1022 10 16 0.00 0.00
11:53 am 11:53 Cloudy 69 20.6 58 14.4 68 68 E 5 7 30.16 1021 10 16 0.00 0.00
12:53 pm 12:53 Cloudy 70 21.1 58 14.4 66 66 SSE 3 6 30.15 1021 10 16 0.00 0.00
1:53 pm 13:53 Cloudy 71 21.7 60 15.6 68 68 SE 6 9 30.13 1020 10 16 0.00 0.00
2:53 pm 14:53 Mostly Cloudy 73 22.8 61 16.1 66 66 ESE 7 11 30.11 1020 10 16 0.00 0.00
3:53 pm 15:53 Mostly Cloudy 72 22.2 61 16.1 68 68 SE 7 11 30.11 1020 10 16 0.00 0.00
4:53 pm 16:53 Sunny 71 21.7 60 15.6 68 68 ESE 6 9 30.12 1020 10 16 0.00 0.00
5:53 pm 17:53 Cloudy 70 21.1 62 16.7 76 76 VRB 6 9 30.13 1020 10 16 0.00 0.00
7:53 pm 19:53 Cloudy 69 20.6 63 17.2 81 81 ENE 3 6 30.13 1020 10 16 0.00 0.00
8:04 pm 20:04 Cloudy 68 20 63 17.2 84 84 NE 6 9 30.13 1020 10 16 0.00 0.00
8:32 pm 20:32 Cloudy 68 20 63 17.2 84 84 ENE 3 6 30.13 1020 10 16 0.00 0.00
9:07 pm 21:07 Cloudy 68 20 63 17.2 84 84 ENE 6 9 30.13 1020 10 16 0.00 0.00
9:53 pm 21:53 Cloudy 68 20 63 17.2 84 84 E 8 13 30.15 1021 10 16 0.00 0.00
10:53 pm 22:53 Cloudy with Mist and Fog 66 18.9 64 17.8 93 93 E 5 7 30.15 1021 4 6 0.00 0.00
11:26 pm 23:26 Cloudy with Mist and Fog 66 18.9 64 17.8 93 93 ENE 5 7 30.15 1021 3 5 0.00 0.00
11:53 pm 23:53 Cloudy with Mist and Fog 66 18.9 64 17.8 93 93 ENE 5 7 30.14 1021 4 6 0.01 0.25

Powered by AerisWeather